User: anonymous
Location: Unspecified
(0.0000°N, 0.0000°E)
Time: 12:14:39
(UTC+00:00)
Language:

COSMOS 2468 - Orbit

View from above orbital plane
View from above orbital plane
View from above satellite
View from above satellite

Ground track
Ground track

The orbit data is extracted from the following two-line orbital elements,

1 37154U 10043C   14273.19348044  .00000022  00000-0  85596-4 0  2778
2 37154 082.4633 220.1215 0013259 301.3084 058.6698 12.42888659184198
Epoch (UTC): 30 September 2014 04:38:36
Eccentricity: 0.0013259
inclination: 82.4633°
perigee height: 1484 km
apogee height: 1505 km
right ascension of ascending node: 220.1215°
argument of perigee: 301.3084°
revolutions per day: 12.42888659
mean anomaly at epoch: 58.6698°
orbit number at epoch: 18419

The dashed part of the orbit path shows where the satellite is in the earth's shadow,  

DLR